Date,TemperatureHighF,TemperatureAvgF,TemperatureLowF,DewpointHighF,DewpointAvgF,DewpointLowF,HumidityHigh,HumidityAvg,HumidityLow,PressureMaxIn,PressureMinIn,WindSpeedMaxMPH,WindSpeedAvgMPH,GustSpeedMaxMPH,PrecipitationSumIn
2013-1-1,42.7,38.3,31.5,40.0,35.6,28.5,92,90,87,29.57,29.41,5,1,5,0.26
2013-1-2,34.6,30.2,26.3,28.7,25.1,22.3,89,81,71,29.66,29.55,6,1,6,0.00
2013-1-3,55.3,33.6,25.4,31.0,23.9,21.2,86,70,32,29.82,29.62,7,0,7,0.01
2013-1-4,55.3,34.5,25.4,31.4,24.1,20.3,83,67,34,29.88,29.79,5,1,5,0.00
2013-1-5,48.6,38.2,25.9,31.8,27.2,20.9,84,66,45,29.81,29.64,6,1,6,0.00
2013-1-6,53.6,40.0,28.3,38.0,30.7,22.0,86,70,51,29.78,29.58,7,1,7,0.00
2013-1-7,59.2,34.5,23.8,36.9,24.9,19.1,83,69,41,29.83,29.64,4,0,4,0.00
2013-1-8,61.6,45.2,30.6,42.0,33.7,24.6,82,66,42,29.73,29.62,8,1,8,0.00
2013-1-9,54.7,52.0,50.0,51.2,47.9,42.0,92,86,71,29.82,29.66,4,1,4,0.32
2013-1-10,64.8,58.2,51.3,59.9,55.3,48.7,94,90,83,29.79,29.39,8,2,8,0.81
2013-1-11,72.0,63.0,57.8,61.6,57.0,52.2,92,81,59,29.48,29.37,12,3,12,0.18
2013-1-12,68.4,66.4,64.4,64.8,62.6,61.0,94,88,80,29.45,29.25,12,2,12,0.66
2013-1-13,67.3,52.5,32.0,61.2,49.3,28.4,93,89,80,29.64,29.23,10,2,10,2.77
2013-1-14,32.4,29.7,27.9,28.6,25.8,23.2,89,85,79,29.79,29.63,8,2,8,0.01
2013-1-15,32.9,30.5,27.4,30.9,28.1,24.5,92,90,88,29.65,29.41,6,1,6,0.00
2013-1-16,34.0,33.0,32.0,31.7,30.8,30.1,92,92,90,29.54,29.38,0,0,0,0.00
2013-1-17,43.9,36.1,32.4,38.1,32.2,28.3,92,86,76,29.84,29.47,6,1,6,0.02
2013-1-18,58.5,37.4,27.4,38.0,28.9,23.9,89,73,41,29.96,29.77,5,1,5,0.00
2013-1-19,62.5,43.9,32.0,35.1,29.4,26.0,82,60,28,29.77,29.56,10,2,10,0.00
2013-1-20,61.6,44.4,31.3,39.0,29.9,22.3,79,58,33,29.67,29.57,6,1,6,0.00
2013-1-21,47.5,33.8,26.1,22.6,18.5,13.2,71,55,33,29.71,29.58,8,1,8,0.00
2013-1-22,37.8,27.6,21.2,14.8,10.0,7.2,59,48,33,29.83,29.68,6,1,6,0.00
2013-1-23,58.1,38.4,24.8,33.8,22.2,9.2,76,53,37,29.76,29.55,7,1,7,0.00
2013-1-24,40.3,33.2,27.7,31.2,17.7,10.8,80,54,36,29.87,29.61,10,2,10,0.00
2013-1-25,40.0,34.9,30.8,34.1,27.5,10.3,86,75,41,29.67,29.42,5,1,5,0.54
2013-1-26,55.4,37.2,29.9,37.1,29.7,25.9,90,76,46,29.74,29.65,4,0,4,0.00
2013-1-27,50.2,41.7,29.9,41.3,34.8,25.4,85,77,64,29.74,29.61,7,1,7,0.00
2013-1-28,60.1,55.3,49.3,52.1,46.9,38.4,83,74,64,29.64,29.53,10,2,10,0.00
2013-1-29,69.1,62.7,55.8,62.4,57.7,50.9,91,84,76,29.54,29.00,13,3,13,0.01
2013-1-30,70.9,54.8,35.5,62.4,49.1,26.1,92,81,66,29.32,28.85,17,3,17,1.48
2013-1-31,51.7,38.7,31.7,33.7,26.4,22.1,84,62,40,29.61,29.33,6,2,6,0.04